|
NORAD ID: 26899 Int'l Code: 2001-038B
Perigee: 273.9 km
Apogee: 34,008.8 km
Inclination: 28.4 °
Period: 598.0 minutes
Semi major axis: 23512 km
Launch date: August 29, 2001
Source: Japan (JPN)
Note: This is a ROCKET BODY
Two Line Element Set (TLE):
1 26899U 01038B 13143.52623681 .00001609 00000-0 74215-3 0 7212
2 26899 028.3927 301.8449 7173863 295.4979 047.7042 02.40801377100092
Source:
NASA's NSSDC Master Catalog entry for H-2A R/B
|